TimeEST,TemperatureF,Dew PointF,Humidity,Sea Level PressureIn,VisibilityMPH,Wind Direction,Wind SpeedMPH,Gust SpeedMPH,PrecipitationIn,Events,Conditions,WindDirDegrees,DateUTC
12:15 AM,32.0,23.2,70,29.96,10.0,NW,5.8,-,N/A,,Overcast,310,2012-11-05 05:15:00
12:35 AM,32.0,20.8,63,29.96,10.0,NNW,11.5,-,N/A,,Overcast,330,2012-11-05 05:35:00
12:55 AM,32.0,21.0,64,29.95,10.0,NW,6.9,-,N/A,,Overcast,320,2012-11-05 05:55:00
1:15 AM,32.0,21.2,64,29.96,10.0,NW,3.5,-,N/A,,Overcast,310,2012-11-05 06:15:00
1:35 AM,32.0,20.7,63,29.96,10.0,NW,6.9,-,N/A,,Overcast,320,2012-11-05 06:35:00
1:55 AM,31.6,22.1,68,29.96,10.0,NW,5.8,-,N/A,,Overcast,320,2012-11-05 06:55:00
2:15 AM,31.1,22.1,69,29.96,10.0,NW,5.8,-,N/A,,Overcast,310,2012-11-05 07:15:00
2:35 AM,30.0,20.8,69,29.96,10.0,WNW,8.1,-,N/A,,Mostly Cloudy,300,2012-11-05 07:35:00
2:55 AM,29.7,21.2,71,29.95,10.0,NW,5.8,-,N/A,,Scattered Clouds,310,2012-11-05 07:55:00
3:15 AM,30.6,21.7,70,29.96,10.0,WNW,4.6,-,N/A,,Mostly Cloudy,300,2012-11-05 08:15:00
3:35 AM,30.9,22.3,70,29.96,10.0,WNW,5.8,-,N/A,,Overcast,290,2012-11-05 08:35:00
3:55 AM,30.7,22.8,72,29.96,10.0,WNW,5.8,-,N/A,,Overcast,300,2012-11-05 08:55:00
4:15 AM,30.7,22.6,72,29.96,10.0,WNW,3.5,-,N/A,,Overcast,290,2012-11-05 09:15:00
4:35 AM,30.6,23.4,75,29.96,10.0,West,3.5,-,N/A,Snow,Light Snow,280,2012-11-05 09:35:00
4:55 AM,30.2,23.9,77,29.96,5.0,West,4.6,-,N/A,Snow,Light Snow,280,2012-11-05 09:55:00
5:15 AM,29.7,24.6,81,29.96,10.0,West,3.5,-,N/A,Snow,Light Snow,280,2012-11-05 10:15:00
5:35 AM,29.3,24.4,82,29.96,7.0,WNW,4.6,-,N/A,Snow,Light Snow,300,2012-11-05 10:35:00
5:55 AM,29.7,24.8,82,29.96,7.0,WNW,3.5,-,N/A,Snow,Light Snow,290,2012-11-05 10:55:00
6:15 AM,29.8,25.0,82,29.97,3.0,NNW,5.8,-,N/A,Snow,Light Snow,330,2012-11-05 11:15:00
6:35 AM,29.3,22.8,77,29.97,10.0,NW,3.5,-,N/A,Snow,Light Snow,310,2012-11-05 11:35:00
6:55 AM,29.3,22.3,75,29.97,10.0,NW,5.8,-,N/A,,Overcast,320,2012-11-05 11:55:00
7:15 AM,29.5,22.3,75,29.98,10.0,NW,5.8,-,N/A,,Overcast,310,2012-11-05 12:15:00
7:35 AM,29.8,22.8,75,29.98,10.0,NW,4.6,-,N/A,,Mostly Cloudy,320,2012-11-05 12:35:00
7:55 AM,30.9,22.6,71,29.99,10.0,NW,4.6,-,N/A,Snow,Light Snow,320,2012-11-05 12:55:00
8:15 AM,30.2,22.6,73,30.00,7.0,North,5.8,-,N/A,Snow,Light Snow,350,2012-11-05 13:15:00
8:35 AM,29.7,23.2,77,30.00,2.5,NNW,9.2,16.1,N/A,Snow,Light Snow,340,2012-11-05 13:35:00
8:55 AM,30.0,20.8,69,30.00,10.0,NNW,6.9,-,N/A,,Scattered Clouds,340,2012-11-05 13:55:00
9:15 AM,31.6,20.3,63,30.01,10.0,North,9.2,-,N/A,,Clear,350,2012-11-05 14:15:00
9:35 AM,31.3,19.0,61,30.00,10.0,North,13.8,18.4,N/A,,Mostly Cloudy,10,2012-11-05 14:35:00
9:55 AM,32.0,19.4,60,30.01,10.0,North,9.2,-,N/A,,Scattered Clouds,10,2012-11-05 14:55:00
10:15 AM,32.0,17.1,54,30.01,10.0,North,9.2,17.3,N/A,,Mostly Cloudy,350,2012-11-05 15:15:00
10:35 AM,31.8,16.3,53,30.01,10.0,North,9.2,-,N/A,,Scattered Clouds,350,2012-11-05 15:35:00
10:55 AM,33.3,14.7,47,30.00,10.0,NW,13.8,-,N/A,,Scattered Clouds,310,2012-11-05 15:55:00
11:15 AM,32.0,12.7,45,30.01,10.0,North,9.2,19.6,N/A,,Scattered Clouds,350,2012-11-05 16:15:00
11:35 AM,32.0,15.3,50,30.00,10.0,WNW,12.7,16.1,N/A,,Overcast,300,2012-11-05 16:35:00
11:55 AM,31.8,16.2,52,30.01,10.0,NW,11.5,-,N/A,,Overcast,320,2012-11-05 16:55:00
12:15 PM,31.6,15.8,52,30.00,10.0,NNW,12.7,-,N/A,,Overcast,330,2012-11-05 17:15:00
12:35 PM,31.5,16.9,55,30.00,10.0,North,8.1,-,N/A,Snow,Light Snow,350,2012-11-05 17:35:00
12:55 PM,31.6,14.5,49,30.00,10.0,NW,8.1,-,N/A,,Mostly Cloudy,320,2012-11-05 17:55:00
1:15 PM,32.5,14.7,48,29.99,10.0,North,6.9,-,N/A,,Mostly Cloudy,350,2012-11-05 18:15:00
1:35 PM,32.5,15.3,49,29.99,10.0,NW,5.8,-,N/A,,Overcast,320,2012-11-05 18:35:00
1:55 PM,32.0,16.3,52,29.99,10.0,NW,6.9,-,N/A,,Overcast,310,2012-11-05 18:55:00
2:15 PM,32.2,17.8,55,30.00,10.0,WNW,8.1,-,N/A,,Overcast,290,2012-11-05 19:15:00
2:35 PM,32.0,19.2,59,30.00,10.0,WNW,10.4,-,N/A,,Overcast,290,2012-11-05 19:35:00
2:55 PM,32.0,18.1,57,30.00,10.0,WNW,8.1,-,N/A,,Overcast,290,2012-11-05 19:55:00
3:15 PM,31.1,20.1,64,30.01,7.0,WNW,10.4,17.3,N/A,Snow,Light Snow,300,2012-11-05 20:15:00
3:35 PM,30.9,21.2,67,30.01,10.0,West,4.6,-,N/A,,Overcast,280,2012-11-05 20:35:00
3:55 PM,30.0,22.8,75,30.01,2.5,WNW,6.9,-,N/A,Snow,Light Snow,290,2012-11-05 20:55:00
4:15 PM,30.2,22.5,73,30.01,10.0,WNW,6.9,-,N/A,Snow,Light Snow,290,2012-11-05 21:15:00
4:35 PM,29.3,22.6,76,30.02,7.0,NW,3.5,-,N/A,Snow,Light Snow,310,2012-11-05 21:35:00
4:55 PM,29.3,20.5,70,30.03,10.0,NW,8.1,-,N/A,,Overcast,310,2012-11-05 21:55:00
5:15 PM,29.8,20.3,68,30.04,10.0,West,6.9,-,N/A,,Overcast,270,2012-11-05 22:15:00
5:35 PM,29.5,20.7,70,30.05,10.0,WNW,5.8,-,N/A,,Overcast,300,2012-11-05 22:35:00
5:55 PM,29.7,20.1,68,30.05,10.0,West,10.4,-,N/A,,Overcast,280,2012-11-05 22:55:00
6:15 PM,29.7,20.5,69,30.06,10.0,WNW,10.4,-,N/A,Snow,Light Snow,290,2012-11-05 23:15:00
6:35 PM,29.3,20.1,69,30.06,10.0,West,8.1,-,N/A,,Overcast,280,2012-11-05 23:35:00
6:55 PM,29.3,19.8,68,30.07,10.0,West,8.1,-,N/A,,Overcast,280,2012-11-05 23:55:00
7:15 PM,29.3,19.2,66,30.07,10.0,WNW,4.6,-,N/A,,Overcast,290,2012-11-06 00:15:00
7:35 PM,29.1,18.5,65,30.07,10.0,WNW,4.6,-,N/A,,Overcast,290,2012-11-06 00:35:00
7:55 PM,28.9,19.4,68,30.07,10.0,Calm,Calm,-,N/A,,Overcast,0,2012-11-06 00:55:00
8:15 PM,29.3,18.7,65,30.08,7.0,West,6.9,-,N/A,Snow,Light Snow,280,2012-11-06 01:15:00
8:35 PM,28.4,19.8,70,30.08,7.0,Calm,Calm,-,N/A,,Overcast,0,2012-11-06 01:35:00
8:55 PM,28.4,20.5,72,30.08,10.0,Calm,Calm,-,N/A,,Overcast,0,2012-11-06 01:55:00
9:15 PM,28.4,21.4,75,30.08,3.0,West,4.6,-,N/A,Snow,Light Snow,260,2012-11-06 02:15:00
9:35 PM,27.5,22.6,82,30.08,4.0,WNW,3.5,-,N/A,Snow,Light Snow,290,2012-11-06 02:35:00
9:55 PM,27.5,22.8,83,30.08,10.0,Calm,Calm,-,N/A,Snow,Light Snow,0,2012-11-06 02:55:00
10:15 PM,28.0,21.9,78,30.08,10.0,WNW,6.9,-,N/A,,Overcast,290,2012-11-06 03:15:00
10:35 PM,27.9,21.2,76,30.08,10.0,WNW,4.6,-,N/A,,Overcast,300,2012-11-06 03:35:00
10:55 PM,28.0,21.0,75,30.08,10.0,WNW,3.5,-,N/A,,Overcast,300,2012-11-06 03:55:00
11:15 PM,27.9,19.9,72,30.08,10.0,WNW,9.2,16.1,N/A,,Overcast,300,2012-11-06 04:15:00
11:35 PM,27.5,17.1,65,30.08,10.0,WNW,8.1,16.1,N/A,,Overcast,300,2012-11-06 04:35:00